Theta_e
302 302 302 302 303 303 303 303 303 302 302 302 302 302 302 303 303 303 303 302 302 302 302 302 303 304 304 304 304 304 304 305 306 307 307 306 305 305 305 304 304 304 304 305 304 305 308 309 308 308 308 306 308 309 311 320 324 326 329 332 332 332 333 323 314 314 313 311 312 311 309 312 313 307 305 307 310 312 310 304 302 305 303 302 304 306 309 309
302 302 302 302 303 302 303 303 303 303 303 302 302 302 302 302 303 302 303 302 302 302 302 302 302 304 304 304 304 303 304 306 306 306 306 306 305 304 304 304 304 304 304 305 304 306 311 310 306 307 307 308 310 309 313 320 322 328 331 330 333 331 324 314 309 309 308 310 313 310 309 311 312 309 305 309 312 311 312 307 303 307 305 302 303 305 307 307
302 302 302 303 303 303 303 303 303 303 303 303 302 302 302 302 302 302 302 302 302 302 302 302 302 303 304 304 304 304 305 306 307 306 306 305 305 305 304 304 304 304 304 304 305 307 310 309 306 306 307 308 310 311 315 319 322 327 326 327 333 326 312 306 306 307 306 307 311 310 309 309 310 308 306 310 313 311 314 312 305 307 307 305 303 302 304 305
303 303 303 303 304 304 304 304 304 304 303 303 303 303 303 303 303 302 302 302 302 302 302 302 302 303 304 303 304 305 305 307 308 306 305 305 305 305 304 304 304 304 304 304 305 306 308 308 307 306 307 310 312 312 317 320 321 324 324 329 330 315 308 307 306 306 305 304 308 310 310 310 309 307 307 311 314 313 313 310 308 309 308 305 302 301 302 303
303 303 303 303 304 305 305 305 304 304 304 304 303 303 303 303 303 303 303 302 302 302 302 302 302 303 303 303 304 304 306 310 309 305 305 305 304 305 305 305 304 304 304 303 304 305 307 307 306 306 307 311 312 312 319 322 318 319 317 319 316 307 308 308 304 304 304 303 306 309 310 310 308 306 307 310 314 315 313 309 308 307 306 304 301 300 302 303
303 303 303 303 304 305 306 306 306 305 305 304 304 304 303 303 303 303 303 303 303 302 302 303 302 303 303 303 304 304 307 311 308 304 305 305 304 305 305 305 305 304 304 304 304 305 307 306 305 308 309 311 314 313 316 316 312 316 312 307 306 306 307 306 303 304 303 304 308 309 309 308 308 307 307 309 311 311 308 306 306 305 304 302 301 300 302 303
303 303 303 304 305 306 305 306 306 306 305 305 304 304 304 304 304 303 303 303 303 302 303 303 302 302 303 303 303 306 308 309 306 304 305 305 305 305 305 305 305 305 305 305 305 306 307 306 305 308 309 310 315 313 312 311 310 315 313 306 304 304 305 304 303 304 303 305 306 306 305 308 310 308 306 307 309 308 303 301 301 301 301 301 300 300 301 303
303 303 303 304 306 305 304 304 304 305 305 305 305 305 304 304 304 304 303 303 303 302 302 302 302 302 303 303 305 309 311 307 305 305 305 305 305 305 305 305 305 305 306 305 306 307 306 305 306 307 308 310 312 313 310 310 313 314 312 306 303 303 304 303 303 303 303 304 303 303 305 307 308 306 304 305 307 307 303 301 302 301 301 301 301 301 301 302
303 303 303 305 306 304 304 304 304 304 304 304 305 304 304 304 305 304 303 303 303 302 302 302 302 302 303 304 307 312 312 306 305 305 305 305 305 305 305 305 305 305 306 306 305 305 305 306 307 306 307 308 310 312 310 311 315 313 309 306 304 304 303 302 302 303 303 303 303 303 305 306 304 303 303 304 305 304 304 306 306 303 303 302 301 301 301 302
303 303 304 305 304 304 304 304 304 304 304 305 305 304 305 305 305 304 303 303 303 302 302 302 302 303 304 306 310 313 310 305 305 305 305 305 305 305 305 305 305 306 305 306 305 304 305 306 306 305 305 307 309 309 309 311 312 309 307 305 305 304 303 302 302 303 303 302 303 303 305 305 302 301 304 306 303 302 306 308 305 304 304 302 302 301 301 301
303 303 304 305 304 304 304 304 304 304 304 304 304 305 304 305 305 304 303 303 302 302 303 302 302 303 304 308 313 313 307 305 305 305 305 305 306 306 305 305 305 305 305 306 305 305 305 305 305 305 306 307 308 309 308 309 306 306 307 305 305 304 302 302 302 302 302 302 303 303 303 303 302 302 304 304 302 301 308 308 304 304 304 302 302 301 300 301
303 303 305 305 304 304 304 304 303 303 304 304 305 305 304 305 304 303 303 303 303 303 303 303 303 304 306 309 313 311 305 305 305 305 305 305 306 306 305 305 305 305 305 305 305 305 305 305 306 307 308 307 308 308 307 306 304 305 305 305 309 308 306 304 303 303 302 302 304 302 302 304 303 303 304 304 301 300 305 307 304 304 303 302 302 301 301 301
302 303 305 304 304 304 304 304 304 303 304 304 305 304 304 304 303 303 303 303 303 304 305 305 304 305 308 310 309 306 305 306 305 305 305 305 305 306 305 305 305 305 305 305 305 305 305 306 306 308 310 312 311 307 305 304 303 306 304 305 310 313 314 306 301 303 301 302 304 302 305 312 310 305 303 302 300 300 302 303 302 302 302 301 301 300 301 300
302 304 305 304 304 305 305 304 304 304 304 304 304 304 304 303 304 304 303 304 304 305 305 305 305 305 308 309 306 305 306 306 305 305 305 305 306 306 306 305 306 305 305 305 305 305 306 306 306 307 307 310 309 304 308 309 305 306 305 308 309 310 319 311 302 303 302 302 303 301 305 311 310 307 303 300 300 301 302 301 299 300 300 300 300 300 300 300
302 304 305 304 305 305 305 305 305 304 304 304 304 304 304 304 304 304 303 305 305 306 305 304 305 307 309 308 304 305 306 305 305 304 305 305 304 305 305 305 306 306 305 305 305 305 306 306 307 309 306 306 309 309 314 315 313 312 308 313 314 308 317 317 305 304 304 302 302 302 307 306 304 307 304 298 297 300 302 301 298 298 299 298 299 299 300 300
302 304 305 305 305 305 305 305 305 305 305 305 305 304 304 304 304 304 304 305 305 306 305 306 308 309 311 307 304 305 304 304 305 304 304 304 304 304 304 305 305 305 306 305 306 305 305 307 307 309 307 305 314 323 321 316 319 320 311 312 316 310 312 314 306 305 304 303 302 303 307 306 305 308 303 296 296 299 300 300 298 297 297 297 297 298 299 299
302 304 305 305 306 305 305 305 305 305 305 305 305 305 305 305 305 304 305 305 306 306 305 307 308 308 309 305 304 305 304 304 303 304 304 302 304 304 303 305 304 304 305 305 306 305 305 307 305 308 312 311 316 321 317 314 319 320 313 310 315 312 310 311 311 306 302 303 303 303 304 303 304 305 301 297 296 298 299 300 299 297 296 296 296 297 298 298
302 304 305 305 305 305 305 305 305 305 305 307 307 308 307 307 306 305 306 305 306 306 306 308 308 308 309 305 304 304 303 303 303 304 302 302 304 304 304 304 303 304 306 307 306 305 305 309 311 313 316 316 317 315 312 317 320 316 315 313 313 314 310 310 313 308 302 303 304 303 303 303 302 302 301 300 297 297 299 298 298 297 296 296 296 296 297 297
302 304 306 305 305 305 305 305 305 305 306 308 307 307 307 309 310 307 306 307 308 308 308 309 308 309 309 305 303 303 303 303 303 303 301 302 303 303 305 303 304 305 306 310 308 307 310 312 313 312 314 315 316 317 315 319 318 314 315 314 312 313 310 309 312 309 304 304 305 304 304 304 303 302 302 302 299 297 298 297 297 297 296 296 295 296 296 296
303 303 305 306 305 305 305 305 306 305 306 307 307 309 312 316 317 313 309 310 310 308 308 309 307 305 306 304 303 303 303 303 303 302 301 302 302 304 305 303 307 307 306 312 310 309 312 313 312 311 318 319 313 313 313 312 311 309 311 312 311 311 309 309 311 309 304 305 309 307 306 305 303 303 301 300 300 299 297 296 296 296 296 296 296 296 296 296
304 303 304 306 305 305 305 305 306 306 306 308 308 311 315 316 315 313 310 307 305 304 306 307 304 303 303 302 303 302 303 304 303 302 301 302 302 304 305 305 308 308 310 311 310 314 312 309 315 318 319 315 308 308 308 306 308 308 309 310 310 310 309 309 308 308 304 305 310 308 305 304 300 300 299 298 300 300 299 298 297 297 296 296 296 296 296 296
304 303 303 306 306 305 305 305 306 306 307 308 308 313 314 311 310 309 309 307 304 303 305 305 302 303 303 302 303 302 303 305 302 301 301 302 304 304 306 309 308 309 313 311 309 316 313 309 318 317 310 306 305 306 305 306 308 307 308 308 309 310 309 309 306 306 305 304 307 306 301 300 298 298 297 297 298 298 298 298 298 298 297 296 296 296 296 296
305 304 303 305 307 306 305 305 306 305 307 309 309 312 312 310 309 308 310 313 308 305 307 307 304 305 305 302 302 302 303 303 302 302 301 302 305 305 306 310 311 310 311 312 311 309 309 311 313 309 304 303 305 306 305 306 308 309 308 306 309 309 306 308 307 304 304 303 304 304 300 299 298 299 301 301 299 299 300 299 298 298 298 298 296 296 296 296
306 306 304 304 306 306 305 305 306 306 308 310 308 308 309 308 308 308 312 315 312 308 306 305 304 304 305 302 301 303 303 301 301 302 300 302 304 304 304 307 311 310 306 311 313 307 308 309 304 303 304 303 303 306 306 304 307 311 310 307 309 308 303 305 305 301 301 301 301 301 300 301 302 304 307 302 299 302 301 300 301 299 298 298 297 297 297 297
306 306 305 304 305 306 304 304 306 307 309 311 307 305 306 307 307 308 310 311 313 313 307 304 305 304 303 301 302 303 303 303 302 300 300 302 303 303 303 303 307 308 308 309 307 306 310 306 301 302 305 304 303 305 308 305 304 307 309 308 307 306 302 303 304 301 298 299 300 299 299 304 305 303 304 300 300 304 301 300 304 301 298 297 297 298 297 297
306 306 305 303 305 305 304 305 306 307 309 310 309 307 305 307 308 309 313 315 317 316 312 307 305 304 303 302 303 303 305 306 302 300 301 301 302 304 304 306 305 306 309 307 303 304 304 300 300 303 304 305 304 304 307 306 303 302 304 305 304 302 300 301 302 299 298 299 298 298 299 302 303 300 301 301 301 305 303 302 305 302 299 299 299 298 297 297
305 305 304 303 305 305 305 307 308 308 308 310 312 308 304 307 308 307 314 319 317 314 313 309 304 304 305 302 302 303 303 303 302 301 301 300 301 303 306 310 307 305 306 304 304 305 301 299 301 302 303 303 303 305 306 304 304 304 301 302 303 300 298 301 301 298 300 300 298 299 299 300 304 303 302 302 302 305 305 305 308 306 303 301 300 298 298 298
304 304 304 303 305 305 307 310 312 310 310 312 312 307 306 307 307 310 314 313 310 310 311 309 303 304 306 303 303 305 303 302 303 302 301 300 300 303 309 312 308 307 303 300 306 308 300 299 302 302 302 303 304 307 305 302 302 302 300 300 301 298 299 302 301 301 302 300 301 302 299 301 307 305 302 301 301 304 308 309 311 312 309 305 302 301 299 298
303 303 303 303 304 306 308 312 314 312 311 313 309 306 306 305 308 317 318 309 307 310 310 307 304 305 309 307 307 309 306 304 303 302 302 300 300 303 306 309 309 308 303 300 306 307 301 300 303 304 302 303 307 305 302 301 299 298 299 300 300 300 302 302 300 302 302 301 303 303 299 301 307 306 303 301 302 305 309 311 312 312 309 305 304 302 300 299
303 303 302 303 305 306 309 311 312 310 310 311 308 306 305 309 319 321 314 308 306 308 309 308 307 308 309 308 309 310 305 306 306 304 305 304 303 304 302 304 309 309 307 305 307 306 301 299 301 303 303 304 305 301 298 299 298 297 300 301 301 302 302 302 302 302 302 306 308 304 301 301 304 308 304 301 308 313 311 309 310 311 308 306 304 302 301 300
305 303 302 303 304 307 309 309 310 308 308 308 306 306 307 314 324 319 306 305 307 306 308 309 309 311 311 304 307 310 306 308 309 304 305 306 308 310 304 304 308 309 314 314 308 306 302 299 300 301 301 301 300 298 298 299 299 299 302 302 300 302 301 303 305 303 303 312 312 303 300 300 303 308 306 303 308 312 311 308 308 309 310 309 306 304 302 301
306 305 304 304 305 307 307 309 311 308 308 307 305 313 319 316 317 315 309 308 308 309 308 307 308 311 310 304 306 311 305 305 308 304 303 303 305 310 310 309 307 306 315 315 307 307 305 303 301 299 299 299 298 298 297 300 301 299 301 303 302 303 302 304 308 305 305 310 306 298 298 300 301 303 302 302 303 304 306 307 306 306 308 308 307 305 302 300
306 307 306 306 307 307 307 309 309 307 308 307 310 321 326 318 313 313 315 310 304 307 308 306 307 307 307 306 308 310 303 302 307 304 303 302 303 309 309 308 305 300 303 306 302 306 310 306 300 298 300 299 297 297 297 300 300 297 298 303 305 303 300 303 308 304 303 305 300 295 296 300 300 301 303 302 300 301 301 301 302 302 302 304 304 303 300 300
305 306 305 306 307 306 307 307 306 307 306 308 318 322 315 312 313 309 311 311 306 308 309 308 309 306 305 306 307 306 301 301 306 304 304 304 303 308 307 302 303 303 302 302 302 304 308 309 305 302 302 299 296 298 301 302 300 298 299 300 303 305 302 304 308 306 305 306 300 295 297 303 304 305 307 304 300 302 301 300 300 299 299 299 299 299 300 303
307 306 304 305 304 305 307 305 306 306 305 313 326 320 310 315 316 308 310 312 309 310 309 306 306 305 307 309 307 304 300 300 304 303 304 306 304 310 312 306 305 305 304 306 306 302 301 306 304 299 298 297 297 299 299 301 300 298 297 296 300 305 303 303 306 304 302 300 299 297 300 305 304 301 302 301 300 301 301 300 298 298 299 297 299 302 303 307
309 309 306 304 303 305 305 305 306 305 308 321 323 316 319 320 311 308 312 310 308 309 307 306 306 305 310 312 309 305 301 300 303 303 304 307 306 308 311 309 306 303 305 311 310 302 299 303 302 297 297 297 298 299 297 299 299 296 296 299 300 298 298 301 302 299 296 296 298 299 299 300 299 299 301 300 301 304 305 304 301 299 298 297 303 307 305 308
308 309 306 303 304 305 305 306 306 306 316 324 317 315 323 314 304 311 313 307 307 307 305 305 307 307 308 310 310 308 303 301 303 303 303 305 307 307 307 307 304 302 305 307 307 305 303 303 302 300 300 298 296 297 298 299 299 297 298 299 298 295 298 302 300 298 297 298 300 299 298 299 300 303 304 302 303 307 309 309 306 302 300 300 306 307 304 306
306 307 307 304 303 304 306 307 304 310 322 321 314 317 317 307 305 310 311 308 306 306 305 305 306 306 305 306 309 306 303 304 306 304 303 304 306 306 307 308 303 301 302 300 300 305 303 302 302 298 299 299 296 297 300 300 297 297 298 297 296 299 303 301 299 300 301 300 303 303 300 300 301 302 304 303 305 306 306 306 307 307 307 306 308 306 302 303
306 313 314 306 302 304 306 305 306 315 322 316 316 317 309 307 309 307 308 308 306 305 306 306 305 305 305 307 310 306 303 307 309 304 303 305 305 305 305 307 303 301 301 299 299 304 301 300 302 297 295 298 297 297 302 302 297 295 296 296 296 300 303 301 298 302 304 301 303 304 302 303 302 300 302 303 303 305 304 304 306 310 311 310 308 304 303 305
307 316 315 304 302 304 304 306 312 320 318 314 320 317 307 308 310 305 305 306 306 306 306 307 305 304 306 308 308 306 303 306 307 303 303 305 306 306 304 303 303 301 299 297 298 301 298 298 302 299 295 297 299 299 301 302 301 298 297 297 296 295 298 299 298 300 303 302 303 303 301 304 304 300 301 303 303 305 304 303 305 311 313 310 304 299 300 303
310 317 314 304 302 304 306 312 316 316 313 313 316 313 308 310 311 308 306 304 306 306 304 307 307 306 308 307 305 304 303 306 306 304 305 305 305 306 303 303 305 302 298 298 299 302 299 297 302 302 298 298 301 300 299 300 301 300 299 299 298 296 298 300 298 299 300 300 304 304 300 302 304 301 300 302 302 302 301 301 304 307 308 306 301 296 296 299
315 316 310 304 302 305 312 318 312 308 312 311 309 309 308 309 310 308 305 303 304 304 303 304 306 307 309 306 305 305 303 306 308 305 307 307 305 304 303 303 304 301 301 303 303 304 302 298 298 299 298 298 299 298 297 298 298 298 298 297 297 298 300 300 300 301 300 297 299 302 300 300 302 299 298 300 300 299 298 299 300 301 300 299 299 299 300 302
319 313 305 302 303 306 314 317 310 309 314 309 306 308 306 306 310 307 304 303 303 304 305 305 304 305 306 303 303 304 302 305 308 307 309 309 307 306 304 302 301 299 301 303 302 301 301 299 297 299 300 298 298 296 294 295 296 297 299 297 296 298 299 300 300 302 304 301 299 299 299 300 299 297 297 300 301 300 298 296 297 298 298 297 299 301 302 302
319 310 306 304 303 307 312 314 312 315 318 312 309 310 305 304 309 310 309 307 305 304 307 307 305 303 303 303 303 304 305 304 306 306 306 308 309 305 302 302 301 298 300 303 303 302 300 300 299 300 301 300 301 302 299 297 296 297 300 298 296 297 297 297 298 297 300 302 300 299 300 300 299 297 299 301 300 300 298 296 296 295 296 296 296 297 298 298
311 307 309 309 305 306 311 317 319 318 317 315 312 312 308 306 307 309 309 308 307 307 306 305 303 302 303 303 302 305 306 302 304 306 302 305 309 303 300 302 300 298 301 304 302 299 300 302 300 299 301 301 301 303 305 305 300 296 299 298 296 298 297 297 300 299 297 299 300 299 299 299 299 299 300 299 298 297 296 296 296 295 295 295 294 295 296 295
307 307 313 315 312 309 308 312 316 313 313 313 312 311 309 308 308 305 304 306 306 306 305 303 302 302 302 302 302 306 306 302 302 304 302 306 311 306 301 301 300 300 303 304 301 297 300 303 299 298 301 301 301 301 302 305 302 298 300 299 297 298 297 298 301 300 299 300 299 299 299 299 299 298 296 295 295 295 294 294 294 294 294 294 293 294 294 292
306 309 313 311 312 314 310 311 312 308 307 308 308 308 308 309 309 304 302 304 304 304 305 304 303 302 303 304 304 306 307 304 302 303 303 305 308 308 303 301 302 302 301 300 298 298 300 300 299 298 299 299 300 300 299 299 298 297 299 299 298 297 296 298 299 299 301 302 300 299 300 300 298 294 293 293 293 293 293 292 293 293 292 292 292 291 291 290
303 308 310 304 304 311 310 310 311 309 306 306 306 307 308 309 308 306 304 303 301 302 305 306 305 305 306 306 304 304 306 306 304 305 306 304 306 309 306 302 301 301 300 297 296 299 301 300 299 299 299 298 297 297 297 297 296 296 297 296 296 297 298 298 298 298 299 300 299 299 299 299 295 292 292 293 292 292 292 292 292 291 291 290 290 290 290 290
306 309 307 302 306 312 308 307 309 309 307 307 308 308 307 308 310 309 305 303 304 304 303 306 311 311 308 305 302 303 307 305 304 305 306 306 307 308 307 304 301 297 298 297 296 298 300 300 300 299 297 298 297 296 296 296 295 296 296 296 296 296 297 297 297 297 297 297 298 297 297 297 293 291 292 292 291 292 291 292 292 290 290 290 290 289 289 289
308 310 308 307 310 311 307 307 309 309 307 305 308 309 308 309 311 309 305 304 306 305 301 304 311 310 308 306 303 303 306 305 303 304 304 304 304 305 305 306 304 299 296 296 297 297 297 300 302 300 298 299 298 298 298 297 297 297 296 295 295 295 296 296 296 296 296 296 296 296 297 297 293 291 292 291 291 291 291 292 291 289 289 289 289 289 289 289
303 305 307 309 309 306 305 308 309 309 308 306 309 310 308 309 309 307 308 308 306 305 306 308 309 306 305 307 305 305 304 303 303 303 302 302 302 303 303 303 304 303 299 297 296 297 297 299 300 298 297 299 298 299 299 297 297 299 296 293 293 295 296 296 294 294 294 294 295 296 296 294 292 291 291 291 291 291 291 291 290 289 289 289 288 289 289 289
302 303 305 307 307 305 306 308 306 306 308 309 309 308 307 308 307 303 306 310 309 308 309 308 306 303 305 307 306 303 302 301 301 301 301 301 300 300 300 300 301 303 302 299 296 296 298 298 299 300 299 298 298 298 297 297 299 300 295 291 292 293 294 294 292 292 292 292 293 294 293 292 291 291 291 291 291 290 290 290 289 288 288 288 288 288 288 288
Wind_Speed
2 2 3 4 6 7 8 8 8 8 8 8 8 8 8 8 9 8 6 5 5 5 3 2 1 4 8 9 7 5 2 2 1 2 2 3 9 11 11 11 12 11 9 7 6 4 2 2 4 4 2 1 2 2 3 3 2 2 2 2 3 3 3 3 4 3 2 2 3 6 6 5 3 2 1 2 3 2 3 3 2 2 3 2 4 6 24 29
2 3 3 4 5 7 8 8 8 8 8 9 8 8 8 9 10 9 7 6 5 5 4 2 1 3 8 10 7 3 1 1 1 2 1 7 12 11 10 10 11 11 9 6 4 3 1 1 2 1 2 0 1 2 1 2 3 3 2 2 4 4 4 4 4 4 2 2 4 6 6 5 5 5 3 2 2 2 4 5 3 3 3 2 1 13 25 28
3 3 4 3 4 4 6 7 8 8 9 9 9 9 9 9 9 8 8 7 6 5 4 2 1 2 7 10 7 2 1 1 1 2 4 10 13 12 9 9 10 9 7 5 3 3 2 2 3 2 2 1 3 2 1 1 3 3 3 2 5 4 3 3 4 4 3 1 3 4 5 6 5 6 4 3 3 5 8 7 5 8 7 4 4 14 22 26
3 4 4 3 2 2 3 5 6 8 9 10 11 11 10 10 9 9 8 7 7 6 4 2 1 2 6 9 6 1 2 2 0 2 6 11 12 11 8 7 8 7 6 4 4 4 3 4 3 1 2 2 4 1 3 3 2 2 4 5 5 4 2 4 5 4 4 3 3 3 4 5 5 5 4 5 4 5 10 10 11 13 12 10 7 12 19 23
3 3 4 3 2 2 2 4 6 8 9 10 11 12 12 11 10 9 9 8 7 6 4 4 3 4 6 9 7 1 3 3 2 3 7 10 10 9 7 6 6 6 4 3 4 3 4 3 1 2 2 3 3 1 4 6 3 1 3 4 3 4 2 4 4 3 2 2 3 4 4 4 3 3 6 8 6 7 7 10 13 11 11 14 12 14 17 20
3 4 5 5 4 4 4 5 6 8 9 10 11 12 12 12 11 10 9 8 8 6 5 5 5 5 6 8 6 1 3 1 3 4 7 9 9 8 7 5 5 5 3 2 3 2 2 1 2 1 1 2 3 4 5 4 3 2 3 1 2 2 3 3 2 2 1 2 4 5 4 4 5 4 5 10 11 7 3 5 9 8 13 19 18 17 16 17
4 5 6 5 5 4 4 5 6 7 8 9 10 11 11 11 11 9 8 8 8 7 6 6 5 5 6 6 4 2 3 2 4 5 6 7 8 8 9 6 4 5 4 3 2 1 0 1 3 3 2 1 4 4 4 4 1 3 4 2 3 2 3 3 2 2 2 3 5 2 2 4 8 6 1 9 15 7 2 3 5 9 16 19 15 14 16 18
4 5 6 6 5 4 3 4 5 6 7 7 8 9 10 9 9 9 8 8 7 7 6 6 5 5 5 5 3 3 2 3 4 5 6 7 7 8 9 7 5 6 5 4 3 2 1 1 4 3 1 3 3 2 3 3 2 2 4 3 2 1 3 4 2 2 1 3 2 2 2 5 8 3 1 11 14 6 3 1 4 9 14 14 13 14 15 17
4 5 6 7 7 6 5 4 4 5 5 5 6 7 8 8 8 9 9 8 7 7 6 6 5 5 6 5 4 2 2 3 4 5 7 7 7 7 7 7 7 7 6 6 5 3 2 1 3 2 2 3 1 1 3 1 2 2 4 3 2 2 4 3 2 3 3 2 1 2 5 6 4 2 5 13 10 5 3 3 6 10 12 12 12 14 14 15
5 6 6 7 7 8 7 6 3 4 3 4 6 7 8 8 9 10 9 8 7 7 6 6 5 6 7 4 5 2 3 3 3 5 9 9 7 6 6 8 8 7 6 6 3 2 4 4 3 2 3 2 2 1 2 2 2 1 3 3 1 2 3 2 2 4 3 2 3 4 5 6 4 2 6 9 2 6 6 5 6 9 11 12 10 11 15 16
5 5 6 6 7 8 8 6 2 2 4 5 6 7 7 8 10 10 9 8 7 6 5 6 6 7 7 4 5 2 3 3 2 5 10 9 6 5 6 8 8 7 7 4 3 1 1 4 3 2 1 1 1 2 2 2 1 2 4 2 3 5 5 3 3 5 2 2 4 5 3 6 3 1 10 7 3 7 7 6 6 8 9 10 10 10 12 15
4 5 6 6 6 7 7 5 4 5 6 6 7 8 9 10 11 10 9 8 7 6 6 6 7 8 5 3 3 3 4 2 2 6 10 9 6 4 4 6 6 7 6 4 3 4 4 5 2 3 2 2 1 2 1 1 3 2 3 1 6 7 5 5 4 4 2 2 4 5 3 6 3 9 14 5 5 6 7 7 7 8 8 8 10 9 9 14
3 5 5 5 5 5 6 7 9 9 9 9 9 10 10 10 10 9 8 8 8 8 9 9 8 7 4 1 2 1 1 1 3 7 7 7 5 3 2 2 4 5 6 5 5 6 6 5 3 5 2 3 1 1 1 2 3 1 1 0 3 7 5 5 1 3 3 2 4 3 3 6 8 14 12 3 6 7 6 8 8 7 7 7 8 8 9 13
3 4 4 4 5 6 8 10 11 12 12 12 11 11 10 9 8 8 7 7 9 11 10 8 4 4 3 1 3 2 2 0 4 8 6 7 7 3 3 4 4 4 5 5 5 6 6 1 5 5 2 3 2 1 3 4 3 0 2 1 2 2 4 7 1 5 3 2 4 5 3 7 9 13 9 5 8 9 8 10 8 7 7 7 8 9 9 12
2 3 3 5 6 9 11 12 13 13 13 12 11 10 9 8 7 7 6 7 9 10 7 3 1 3 2 1 3 2 2 2 5 8 8 9 9 6 6 8 7 5 5 6 5 6 4 2 5 4 1 2 3 3 3 4 3 2 1 3 3 2 5 8 3 7 4 2 3 5 3 7 10 13 8 5 7 8 10 10 8 9 9 9 8 9 10 10
2 3 4 6 9 12 13 14 14 13 13 12 12 11 9 8 7 7 6 6 6 6 4 1 1 3 3 1 1 1 1 3 6 8 7 9 10 8 11 11 8 6 6 6 5 4 3 4 3 2 2 2 4 4 3 4 4 3 1 3 4 2 4 6 3 5 5 1 1 4 4 6 7 9 5 3 7 8 9 10 10 10 10 10 9 9 10 9
2 3 5 8 11 12 12 12 13 13 13 12 12 11 10 9 8 7 6 5 4 3 2 3 2 2 2 0 0 2 3 4 7 7 8 10 8 7 9 6 4 7 8 5 4 4 3 4 1 0 2 3 2 4 3 3 4 3 1 2 4 3 3 4 5 4 3 3 4 4 5 10 12 10 6 3 7 8 9 11 11 11 10 10 10 10 10 10
2 4 5 7 10 11 11 11 12 12 11 11 11 12 11 10 8 8 7 5 3 0 2 4 2 3 1 2 1 3 6 7 6 6 9 10 5 5 5 3 3 8 8 4 3 2 2 3 2 1 3 3 3 5 2 4 3 2 3 2 3 3 3 4 5 3 3 4 6 4 5 14 18 13 10 8 8 9 12 12 11 11 11 11 10 11 11 12
2 4 5 7 11 11 10 10 10 9 9 9 11 11 10 8 7 6 6 5 3 0 1 3 1 3 3 3 2 6 8 5 3 4 12 13 7 5 3 1 2 4 4 3 3 2 1 2 2 1 2 2 1 5 6 6 5 4 4 3 4 5 5 5 6 5 3 3 6 7 8 14 18 15 12 9 8 10 14 12 10 11 11 10 10 10 12 13
2 4 6 8 11 11 9 8 9 9 9 8 8 5 3 3 4 3 3 3 2 2 2 3 1 2 2 3 4 8 6 2 1 3 15 15 8 4 3 2 5 5 2 1 3 2 4 2 2 5 5 5 5 5 5 4 4 2 2 3 4 4 6 5 5 5 1 1 7 7 8 14 18 18 17 10 7 11 14 13 13 13 11 11 11 12 13 14
1 3 6 8 10 11 9 8 9 9 8 5 3 2 2 2 2 1 1 2 3 2 2 3 2 1 1 2 4 6 2 1 1 5 15 13 4 3 2 3 5 2 3 2 2 3 4 1 5 7 7 6 5 3 1 1 1 0 2 3 4 3 6 6 4 5 3 1 5 3 6 15 18 18 18 11 8 12 14 14 15 15 13 11 11 14 14 13
1 3 6 8 9 10 10 9 9 8 5 1 2 1 2 3 2 2 2 0 3 1 1 3 0 1 3 0 2 4 3 4 3 5 14 13 4 2 2 3 4 3 3 2 1 5 3 3 8 7 5 3 2 1 2 1 0 0 1 1 4 3 5 6 3 5 4 1 5 5 6 16 20 16 17 14 10 12 12 13 14 14 13 11 12 14 13 12
1 3 5 8 9 8 11 11 9 6 2 3 3 1 1 1 3 3 2 2 2 2 2 2 2 2 3 1 2 4 3 3 1 5 12 11 4 2 2 4 3 1 3 3 3 0 2 5 6 4 2 3 3 3 4 2 1 2 2 2 4 3 1 3 4 5 2 2 5 6 7 13 17 12 12 12 7 8 8 11 13 12 12 13 13 12 12 12
2 3 5 8 9 8 11 12 7 4 1 4 5 3 5 5 4 3 1 2 2 2 1 1 2 1 1 1 3 4 2 1 2 4 8 7 1 1 2 3 3 2 1 0 5 4 5 5 2 2 5 4 1 3 2 1 3 3 4 5 4 3 3 4 4 5 4 3 3 5 6 9 8 6 9 8 2 5 6 6 10 10 11 11 9 9 11 12
3 4 5 9 9 10 12 10 5 3 0 2 3 5 8 6 1 2 1 3 2 4 2 1 1 1 1 1 2 1 1 0 2 3 5 4 1 1 1 2 2 1 3 2 4 2 6 4 2 2 3 3 3 3 2 5 2 4 4 7 6 4 3 3 5 6 5 5 3 3 5 7 6 6 10 8 5 7 6 5 9 9 8 7 7 9 10 11
3 4 6 10 11 13 11 5 3 3 1 2 1 3 6 3 0 2 3 4 3 4 2 0 0 1 1 1 1 1 2 2 3 2 2 2 1 2 1 1 2 1 4 3 1 2 3 1 3 3 2 2 2 3 5 5 3 3 4 5 6 5 1 2 4 4 2 5 4 3 2 6 8 10 11 6 6 10 9 8 10 9 6 6 8 10 9 10
2 3 7 11 13 14 10 2 4 5 1 2 2 4 5 2 1 0 3 4 3 2 1 1 0 1 1 1 1 2 1 3 2 1 0 1 1 2 1 2 1 1 2 3 1 2 2 2 3 3 3 1 2 4 5 7 6 3 3 5 5 2 0 1 3 1 2 4 5 0 4 3 7 10 7 3 7 11 11 11 10 8 7 8 9 10 10 11
1 2 7 12 14 15 8 4 6 4 1 2 2 5 6 1 3 0 5 3 2 0 1 2 0 1 2 1 3 3 1 2 2 2 1 2 1 3 2 3 4 3 1 4 2 5 2 3 3 4 2 2 5 5 6 7 4 4 4 4 2 1 3 4 4 2 1 3 5 3 4 1 6 9 4 3 6 10 11 11 10 9 8 9 9 11 11 11
1 2 7 12 15 14 7 5 6 3 1 2 3 5 6 2 2 4 5 1 1 1 0 1 0 1 4 3 3 2 1 1 1 3 2 2 0 3 1 3 6 4 1 3 5 5 1 3 6 6 4 5 6 4 5 6 3 3 5 3 2 3 2 3 4 2 2 2 5 5 4 2 5 9 6 2 3 7 9 9 9 9 9 9 9 10 11 10
3 3 7 12 14 12 8 5 5 3 1 2 2 5 4 2 4 6 2 2 1 1 1 1 1 2 5 4 4 4 1 1 2 3 3 1 2 4 1 2 5 4 1 2 3 4 2 1 3 4 4 6 4 3 3 3 2 2 4 3 4 4 3 2 2 3 3 2 7 6 6 3 2 7 7 3 5 7 7 7 8 8 8 9 9 9 9 8
5 4 7 12 12 10 7 3 3 2 2 2 3 3 1 3 5 5 1 3 0 1 1 1 2 3 5 2 3 4 1 3 4 2 2 2 3 4 3 1 2 3 3 4 3 5 3 0 2 2 3 4 5 2 0 2 2 3 3 3 3 4 3 3 4 3 2 5 7 4 5 4 3 8 7 6 7 7 7 7 9 9 9 9 10 9 9 8
6 6 7 9 9 8 6 2 2 3 4 2 4 3 4 3 2 1 3 3 1 1 1 1 2 2 3 1 2 3 2 3 3 2 0 1 1 2 1 3 2 2 4 3 3 5 3 4 3 2 1 5 5 1 2 4 4 4 3 4 3 3 3 2 3 1 3 6 5 2 3 3 6 11 13 12 12 11 10 9 10 10 10 10 10 9 7 7
5 6 6 5 4 5 7 4 1 2 4 5 4 4 6 4 2 3 2 3 1 1 0 0 2 1 1 2 3 2 1 2 1 1 0 0 2 3 3 4 4 1 2 3 1 4 3 4 1 1 3 3 7 4 2 1 2 4 3 4 3 1 1 3 4 2 4 5 3 2 2 3 5 9 14 17 17 14 10 10 12 11 11 11 10 8 7 6
7 5 3 2 2 2 6 6 3 1 6 6 4 5 5 1 4 3 2 3 2 2 1 1 3 3 0 2 3 2 1 2 0 1 1 1 2 3 4 4 4 3 2 1 1 1 1 5 3 5 2 4 7 6 5 5 4 4 4 5 4 4 3 4 4 4 5 4 3 3 2 4 4 4 7 9 11 10 8 9 9 10 10 9 8 7 8 7
7 6 4 3 2 1 4 4 3 4 8 5 6 5 3 3 4 1 3 4 1 2 2 0 2 3 3 3 2 1 0 2 2 2 1 2 2 3 3 4 5 4 4 2 3 2 2 6 5 1 1 6 6 4 4 5 1 3 3 4 2 4 5 3 3 5 2 3 3 3 3 5 5 8 10 9 10 9 8 8 7 9 10 6 7 9 7 7
5 6 6 5 4 1 2 4 5 7 6 5 6 2 4 4 2 2 3 2 0 1 2 3 2 1 4 4 2 2 1 1 2 2 2 3 4 5 4 4 6 7 5 5 3 2 2 6 4 1 1 5 5 3 2 2 1 1 2 3 4 4 6 2 3 1 3 2 4 3 5 6 4 11 12 8 10 9 6 6 5 8 7 4 7 8 6 6
6 4 4 5 6 4 3 7 8 6 3 6 4 3 4 3 2 3 2 0 0 2 3 3 1 1 2 3 3 2 1 2 2 1 2 3 3 5 4 3 4 7 7 4 3 3 3 5 5 3 3 4 3 2 3 3 4 4 3 5 3 2 4 3 1 3 3 4 5 4 8 6 1 6 6 4 7 9 7 6 5 5 5 5 8 8 6 6
6 3 2 5 6 4 5 8 7 3 4 5 1 3 3 2 1 2 2 2 1 2 4 1 3 1 1 1 3 3 2 1 2 1 2 3 4 4 5 3 2 4 4 3 1 2 3 3 6 1 2 2 2 1 4 4 3 4 3 3 2 2 1 1 2 2 2 4 6 4 7 6 5 7 5 6 10 10 8 6 6 7 6 6 9 8 7 6
5 2 2 4 4 3 7 7 3 4 5 3 2 2 2 2 2 2 2 2 2 2 2 3 2 1 1 3 3 3 3 3 2 1 2 2 4 4 5 3 2 0 0 4 3 2 2 1 5 2 1 1 2 1 3 2 2 2 1 3 1 3 4 2 3 3 2 4 5 5 4 4 7 8 8 12 13 11 10 6 5 8 8 7 8 7 7 5
3 2 1 2 3 3 7 4 3 5 3 2 4 2 2 2 2 2 3 2 1 1 2 3 2 1 3 4 3 2 2 4 4 2 3 3 3 5 5 4 4 2 2 3 1 2 1 2 4 4 3 1 2 5 7 7 4 3 2 3 2 2 2 1 2 3 4 3 3 4 7 7 6 6 9 13 13 11 8 5 6 8 7 7 6 6 6 5
3 3 2 2 3 2 4 3 3 3 2 2 3 2 1 1 1 2 2 1 1 1 1 3 4 3 3 3 3 2 2 3 4 3 3 4 3 4 4 5 7 6 3 3 1 3 2 3 4 3 2 4 7 7 7 8 8 7 6 7 7 5 4 1 5 2 3 3 5 4 8 10 5 3 8 10 9 6 2 2 6 7 7 7 6 5 6 5
4 2 2 1 1 1 3 4 2 1 2 2 2 1 0 1 1 1 1 1 1 1 1 0 3 3 3 3 3 3 2 2 3 4 4 5 6 5 3 5 8 8 5 2 4 4 3 3 3 5 7 9 8 4 3 4 5 4 4 5 6 6 6 5 6 4 2 2 2 2 4 8 4 2 3 3 3 4 3 0 5 7 6 7 7 6 5 5
3 1 1 1 2 1 5 2 3 2 1 3 2 1 1 1 1 1 1 1 1 1 1 1 3 3 3 3 2 2 3 3 5 6 4 4 6 6 4 7 9 6 4 2 3 2 2 2 3 6 7 7 5 3 3 3 3 2 5 4 6 6 6 6 5 3 2 3 3 2 5 7 2 4 3 4 6 6 5 5 6 6 6 7 7 7 6 5
2 2 0 1 1 1 3 2 2 2 4 3 3 2 2 1 3 3 2 3 2 2 2 2 3 2 2 1 1 3 4 3 4 6 4 4 5 3 2 8 9 6 3 3 2 2 3 2 1 3 7 8 6 5 5 3 1 3 4 4 6 8 4 1 1 2 2 8 7 5 9 8 2 3 5 9 9 9 8 7 7 7 8 9 9 8 7 7
2 0 1 2 2 3 2 4 4 2 3 2 3 4 2 1 2 4 3 3 2 4 2 2 1 2 1 1 0 3 4 3 4 3 2 3 5 3 1 7 8 5 3 2 2 3 3 2 3 3 7 9 9 8 5 2 2 2 2 3 7 10 9 4 1 2 7 10 6 6 11 10 6 5 10 13 12 11 11 11 10 10 9 9 9 8 8 8
2 0 2 4 5 4 1 1 5 3 2 1 3 4 1 2 3 1 3 3 2 3 2 2 1 1 1 0 2 4 5 5 5 4 4 4 5 3 1 4 5 5 2 0 2 2 0 2 5 8 10 12 14 14 5 3 1 6 5 4 6 8 10 6 1 5 7 3 4 11 14 12 10 8 12 13 12 12 11 11 10 9 8 9 8 7 8 8
1 1 1 1 3 3 2 2 3 2 2 2 2 2 1 3 4 2 2 2 1 1 2 1 2 2 2 2 2 4 4 3 4 5 8 8 5 5 3 3 5 7 3 1 2 3 1 6 8 10 15 19 20 20 9 4 6 12 11 8 7 5 7 8 10 13 6 1 8 18 16 10 7 9 11 11 11 10 9 9 9 8 8 8 8 9 10 11
1 2 2 2 1 1 0 2 1 3 1 0 1 1 1 3 3 2 2 2 1 1 2 1 2 6 7 4 3 3 4 2 4 5 6 6 4 5 5 2 3 3 4 3 2 3 4 8 6 8 14 20 20 19 13 9 11 14 13 13 10 7 8 13 18 19 10 6 14 18 17 12 6 10 10 10 9 9 8 8 8 8 10 10 11 12 13 13
1 1 1 2 0 3 1 1 2 3 1 1 1 1 1 2 4 4 2 0 3 2 3 3 6 8 7 5 4 3 3 2 7 7 2 3 4 2 5 5 3 2 2 3 2 2 3 5 4 4 9 17 19 15 10 9 11 11 12 12 10 11 14 16 18 18 15 15 17 16 19 14 6 9 10 9 8 8 8 9 10 11 12 12 13 13 13 13
1 1 1 3 3 0 1 3 3 3 1 1 1 3 2 3 5 5 2 3 3 3 2 4 9 7 5 6 6 6 8 7 11 11 4 5 6 2 2 5 1 3 2 1 1 1 2 2 1 2 4 14 16 9 4 4 7 8 10 10 9 13 15 13 12 11 11 14 15 12 12 9 6 10 11 10 10 10 12 13 12 11 12 13 14 14 13 13
2 2 2 3 1 2 2 2 3 4 1 1 2 3 2 2 4 4 3 4 5 4 5 7 9 5 2 5 7 10 13 10 12 14 9 9 9 4 3 4 2 2 1 2 0 2 3 2 3 3 3 13 10 4 5 6 7 8 7 10 11 11 8 4 3 6 7 9 8 6 4 6 8 11 11 10 12 14 15 13 10 9 12 13 14 13 12 12
2 1 2 4 0 2 1 1 3 2 0 2 3 3 3 5 3 0 3 4 3 4 7 7 5 3 1 4 7 9 10 8 11 13 9 8 10 8 8 9 6 3 3 3 1 1 3 3 2 1 4 12 8 4 7 10 11 7 5 10 12 8 7 7 9 12 12 8 6 5 4 7 10 11 11 12 14 15 15 12 8 9 12 12 12 13 13 13
Wind_Direction
327 314 288 275 266 262 260 259 260 255 248 244 239 238 240 239 240 243 248 250 251 254 245 210 159 171 172 174 179 176 137 75 75 124 126 335 328 322 322 316 310 310 307 303 282 266 276 245 239 222 199 176 179 198 202 179 125 81 118 199 231 208 216 193 186 196 157 243 201 186 200 165 172 213 153 50 29 61 161 223 290 356 357 324 312 158 162 168
352 337 309 288 271 265 262 260 259 258 257 255 248 240 237 239 242 246 248 249 252 256 262 245 168 189 184 189 199 189 121 64 164 182 251 331 338 333 328 318 309 308 303 298 273 244 109 5 302 142 134 93 238 208 173 182 158 154 155 199 230 209 213 191 177 186 173 242 200 191 201 187 186 178 159 183 232 130 168 236 257 270 295 350 108 150 160 166
360 349 334 315 283 265 258 257 255 252 253 253 253 248 240 236 239 246 248 248 249 251 261 247 201 199 184 192 200 191 293 339 171 217 320 339 342 336 332 323 313 313 304 290 258 211 182 281 324 55 123 235 263 222 201 230 179 186 170 215 247 211 207 211 185 190 204 219 184 201 195 204 204 159 162 186 182 180 202 215 200 226 225 181 162 156 161 165
5 359 347 335 308 275 256 251 251 248 248 246 248 250 247 241 234 236 243 243 242 242 248 248 232 198 187 191 184 206 321 29 11 278 344 347 345 340 334 329 324 322 306 279 242 229 247 285 308 109 143 244 276 196 196 231 197 185 177 212 234 177 186 227 198 193 208 193 187 189 156 207 209 154 178 157 149 225 227 216 202 212 197 173 178 168 167 169
5 360 357 353 340 309 271 247 243 240 240 240 240 242 245 246 239 232 233 235 234 229 224 232 230 195 190 189 182 275 6 40 311 323 354 353 355 348 337 335 337 328 305 269 253 258 277 281 11 71 149 238 267 168 226 228 172 149 208 224 214 156 195 233 193 178 201 182 183 172 163 192 157 159 198 171 189 231 225 218 211 207 178 168 173 172 175 177
356 357 2 358 348 323 293 264 248 240 238 237 235 235 235 239 240 233 226 227 226 215 208 213 218 198 188 186 187 332 47 141 290 347 351 359 8 359 352 341 343 345 326 274 276 293 312 316 103 157 200 239 232 202 245 250 156 220 260 264 271 208 204 224 184 179 136 133 189 186 182 153 144 224 214 192 222 225 195 221 211 194 170 169 169 170 179 183
350 356 359 351 343 322 301 284 267 254 245 238 235 230 225 228 232 229 218 218 218 205 203 206 209 197 181 174 184 25 66 217 294 347 349 7 14 5 4 349 351 355 339 327 322 188 320 103 167 194 176 287 241 211 263 311 41 219 241 228 251 255 197 206 204 202 117 173 222 185 136 157 185 229 198 212 236 230 219 258 203 172 162 164 165 175 185 187
346 355 353 346 343 334 313 293 275 261 251 241 233 220 213 214 219 220 206 203 204 195 198 199 199 189 167 156 150 26 10 260 309 349 351 4 6 8 8 359 5 353 336 329 303 231 237 242 218 196 181 268 232 229 303 323 360 190 220 213 194 294 223 219 220 248 220 216 259 102 186 219 206 214 288 237 242 229 229 260 165 154 152 164 173 182 188 190
350 358 355 354 349 343 335 316 281 249 245 231 212 195 191 194 200 204 195 191 188 187 193 188 188 172 156 142 104 43 290 272 335 355 355 352 354 8 14 10 6 354 343 331 305 232 183 223 231 171 215 262 194 314 332 284 266 211 190 183 162 250 240 215 220 247 253 243 123 163 250 267 252 284 274 254 240 198 160 109 143 150 158 177 181 184 187 191
356 2 1 5 358 350 342 333 301 233 219 195 179 170 170 175 182 184 180 178 176 178 182 180 181 159 156 132 80 70 280 325 344 356 357 342 339 3 26 25 11 1 347 344 8 164 174 201 226 164 187 232 115 348 323 189 214 172 130 125 131 278 264 199 222 248 261 269 173 190 257 275 295 339 257 267 219 150 133 125 159 159 173 185 184 190 191 193
1 7 11 14 11 5 358 352 351 184 171 159 159 156 157 160 163 165 165 165 163 164 169 174 170 158 159 117 95 180 285 343 344 359 352 332 329 353 21 26 14 8 354 355 42 87 223 232 213 139 178 206 110 360 314 181 121 97 104 65 337 344 309 250 231 247 252 281 181 162 262 281 343 252 240 256 142 154 151 161 181 176 186 187 188 194 193 201
3 17 21 24 25 24 22 29 68 118 134 132 136 138 139 143 146 151 153 150 149 151 153 151 152 157 143 82 127 221 292 329 334 346 340 325 320 330 3 17 11 7 358 354 349 358 338 285 183 125 231 187 144 348 278 146 83 101 96 345 311 357 322 258 223 213 165 220 190 140 312 281 223 226 240 233 153 169 160 178 194 193 198 191 194 197 199 207
11 31 35 36 41 52 65 75 87 102 112 116 120 122 124 128 130 135 138 140 144 137 132 130 147 164 137 85 196 225 326 222 324 335 336 331 324 297 287 334 351 352 344 342 327 353 351 299 162 139 152 110 152 225 125 55 75 151 79 58 313 0 325 277 194 137 140 205 185 133 295 272 239 241 243 184 156 163 174 203 205 202 206 200 201 201 207 207
29 46 51 51 64 87 97 94 96 102 106 110 112 113 114 116 117 123 128 140 144 135 130 124 143 176 149 206 194 100 50 325 349 349 353 352 347 313 261 286 310 318 318 323 320 343 358 327 124 107 76 93 169 131 49 8 38 193 314 7 7 356 289 294 278 135 142 232 130 113 252 263 266 264 253 195 171 168 197 219 208 210 213 207 209 207 214 211
51 71 72 73 87 102 104 102 102 102 105 108 109 110 112 113 117 122 130 144 146 144 143 115 148 160 91 304 186 132 4 1 10 6 3 354 353 337 308 307 302 302 299 298 308 331 354 97 94 81 51 17 62 72 25 347 4 37 343 315 334 192 263 303 271 164 174 250 116 126 243 267 267 272 266 198 178 180 208 225 213 218 218 212 217 211 219 220
89 93 92 101 108 111 107 102 101 101 103 104 104 106 107 109 114 119 132 144 149 166 165 26 299 137 82 343 196 183 310 348 352 355 353 339 335 322 315 312 303 316 313 287 277 303 352 55 58 101 127 37 62 81 32 3 342 1 119 257 278 245 282 316 294 206 188 181 181 194 243 278 264 271 287 173 185 196 215 232 223 220 222 216 217 216 220 222
106 111 112 117 122 121 112 104 105 107 106 106 107 106 105 105 109 116 126 133 147 189 224 306 309 111 86 345 183 272 291 319 321 327 337 332 320 309 316 320 323 338 335 310 279 288 358 45 37 323 70 44 74 90 46 339 301 318 17 265 257 250 274 302 308 281 189 198 245 223 238 262 262 268 284 220 194 204 221 234 230 224 224 219 217 219 219 218
115 132 129 132 138 133 120 112 114 115 114 112 112 110 107 106 108 117 123 130 142 22 308 299 8 85 320 305 225 286 297 304 311 328 344 345 326 306 311 311 337 349 354 356 342 340 1 23 57 16 10 9 40 93 132 236 219 226 244 265 279 276 262 260 285 280 178 217 248 245 260 265 267 266 261 239 199 207 228 231 233 231 225 221 218 219 219 219
119 147 146 147 150 144 132 124 125 130 128 120 121 117 104 97 96 104 105 110 137 116 259 262 69 139 242 271 273 306 309 302 304 352 358 358 338 318 320 288 6 24 34 24 337 346 68 22 42 14 297 273 216 143 178 210 182 189 209 200 248 273 272 250 260 259 182 216 258 246 252 267 275 275 266 248 202 214 235 236 238 238 231 227 220 220 221 222
120 161 161 155 158 158 147 135 138 144 139 127 127 118 87 72 53 29 32 59 157 192 203 220 181 159 256 288 319 331 327 303 207 359 2 356 338 353 39 26 29 43 62 164 282 335 87 67 257 230 228 219 219 195 190 198 168 169 196 213 247 255 279 271 264 282 140 212 264 244 252 267 273 276 275 260 209 222 237 237 241 238 233 229 222 224 222 224
119 164 172 167 168 172 169 154 148 148 142 127 100 74 136 143 67 324 314 338 263 218 226 244 204 158 300 284 332 354 360 350 308 353 1 355 353 33 356 16 47 15 304 196 245 356 68 102 249 226 211 203 222 225 219 230 168 33 208 244 278 239 262 268 253 305 16 26 272 281 286 275 272 274 278 269 221 230 233 230 240 238 235 233 226 228 226 229
162 171 178 177 174 181 185 171 154 149 140 73 26 78 179 196 175 180 142 320 272 260 327 307 116 311 314 290 350 11 65 30 347 335 356 360 28 48 310 42 87 223 317 42 8 356 21 247 246 235 210 182 279 342 48 15 214 305 170 225 278 255 277 289 305 338 16 121 277 326 319 283 279 277 278 273 241 240 235 224 236 237 234 233 226 228 227 230
243 196 185 186 183 187 189 175 159 153 126 17 9 57 157 171 165 164 95 101 273 326 360 3 89 303 319 31 13 29 75 50 306 300 349 4 26 56 89 64 68 188 360 41 157 116 321 255 238 224 120 89 346 2 67 38 356 220 189 197 266 273 307 283 310 333 305 217 273 308 310 284 286 290 284 273 241 250 252 231 238 236 230 230 225 225 223 225
261 220 200 192 187 187 184 175 164 157 115 17 22 80 119 108 136 169 77 50 290 297 290 248 172 193 261 302 358 40 103 148 222 288 349 19 50 26 109 112 65 80 302 242 148 170 242 247 201 92 73 104 239 328 79 136 306 278 210 200 236 253 222 235 291 317 301 305 290 305 312 285 289 311 294 289 253 264 275 256 254 244 235 239 234 229 223 221
268 233 204 191 185 182 178 174 171 164 15 22 54 110 123 106 123 176 104 42 336 297 303 288 273 198 216 293 346 67 118 275 226 263 347 33 88 6 83 136 85 147 240 193 130 211 256 256 141 93 53 102 170 268 208 177 258 307 239 203 189 189 216 270 329 341 346 334 315 27 358 290 296 302 274 286 314 291 300 300 272 259 244 239 237 236 228 226
263 236 197 187 181 176 173 172 180 174 287 298 187 152 134 110 51 133 90 55 338 288 296 288 325 343 284 346 3 109 63 318 259 254 5 35 72 98 125 285 33 217 212 168 149 243 252 354 74 121 116 97 141 256 235 160 122 301 250 181 151 144 154 11 16 14 340 281 276 82 114 262 303 301 270 285 319 293 296 294 275 269 252 224 228 236 231 230
257 232 192 184 179 176 174 157 162 164 218 271 251 199 162 91 319 186 63 37 338 264 190 272 68 69 254 268 50 113 92 306 305 307 33 97 338 66 126 260 344 240 189 109 349 261 180 64 45 107 115 140 209 255 229 145 122 249 230 138 131 125 266 125 87 88 234 276 304 84 159 224 296 285 270 348 326 298 296 291 281 274 251 228 229 234 231 229
282 215 186 181 179 177 172 138 152 154 184 262 299 203 178 18 307 85 77 53 320 125 119 298 185 66 314 339 62 101 244 319 44 278 284 107 305 34 59 225 186 204 187 117 245 266 184 179 203 171 141 201 222 229 195 149 144 244 200 149 164 190 187 156 129 194 243 345 315 267 161 193 273 267 282 8 305 291 290 283 277 272 253 234 231 232 233 231
63 172 179 178 177 176 165 139 153 148 215 273 306 198 192 303 343 63 75 124 306 42 94 344 127 303 342 8 22 32 323 347 125 265 329 86 305 37 76 203 153 166 234 132 209 249 220 214 196 159 166 216 225 222 179 159 196 222 161 132 52 77 125 122 134 170 57 25 266 235 176 184 273 274 288 337 252 257 265 270 268 264 256 245 239 237 237 236
80 131 165 173 173 173 164 146 152 129 49 303 243 183 200 330 49 64 37 240 268 329 234 32 274 329 27 25 330 338 2 293 304 321 352 42 352 25 91 165 101 119 301 1 240 246 311 285 182 155 190 201 179 172 160 157 188 145 103 69 27 39 51 51 94 98 66 283 255 231 190 173 286 278 264 225 214 216 223 256 272 273 269 255 247 244 241 237
79 105 150 169 173 174 171 167 192 193 344 312 187 155 57 11 68 90 246 248 207 324 335 341 316 23 49 47 306 328 4 305 323 11 354 332 357 13 46 49 49 65 359 346 304 294 330 266 225 232 201 143 116 123 40 35 69 87 72 57 13 348 15 16 358 47 101 249 263 237 182 164 231 264 259 231 226 214 202 232 256 261 261 252 245 243 236 234
83 101 132 163 180 186 184 185 229 244 284 231 159 100 63 40 25 161 258 308 351 305 314 301 313 35 50 17 279 291 321 308 329 68 100 325 330 287 159 174 198 12 338 289 304 324 291 221 252 300 223 143 122 114 328 4 46 83 93 77 44 331 352 339 300 317 208 240 261 220 169 187 232 255 264 260 253 239 218 223 239 244 246 246 246 247 241 235
92 109 120 144 171 197 199 195 309 283 223 168 126 53 74 84 265 228 266 329 330 301 17 282 316 52 80 330 284 262 269 265 287 58 238 320 338 284 248 205 180 141 285 235 312 340 317 297 287 199 272 180 149 156 217 248 122 139 153 128 129 116 13 285 267 275 264 254 265 250 206 245 271 265 255 251 254 252 233 226 235 239 239 240 245 257 267 258
76 92 110 142 145 204 203 212 288 262 164 147 85 53 78 129 239 214 271 271 249 343 26 107 347 360 172 244 265 272 308 264 267 50 320 356 356 290 274 250 188 133 116 175 262 196 279 302 234 183 227 171 174 191 170 144 149 185 171 135 147 154 172 240 235 231 260 278 288 288 240 206 217 254 239 230 247 257 248 239 237 242 244 246 263 273 270 259
58 67 72 88 100 198 198 213 241 161 151 117 60 70 125 226 247 206 244 251 269 337 307 152 39 5 313 281 289 320 148 278 344 28 255 190 201 220 228 225 195 150 123 169 246 175 192 264 250 221 173 159 184 215 141 116 123 227 146 112 169 181 167 211 214 197 219 308 282 247 239 217 220 282 284 264 265 265 257 255 242 246 253 255 268 266 252 243
41 49 57 59 55 60 174 175 163 158 145 88 64 94 194 222 225 185 210 232 140 209 314 346 54 48 309 310 320 354 40 277 323 350 265 216 217 214 211 217 193 177 160 161 214 188 197 269 275 22 282 192 187 187 162 162 184 175 147 180 224 180 134 139 267 318 60 288 259 200 237 266 300 293 285 277 282 289 292 283 247 248 268 269 255 255 245 238
33 37 46 44 41 48 129 150 150 150 105 83 96 205 219 217 182 180 192 125 173 140 64 352 301 203 293 309 301 309 350 297 305 332 275 260 250 208 206 244 193 189 191 169 233 219 172 273 271 175 214 248 185 163 285 264 160 138 187 222 224 141 95 95 262 334 21 265 266 215 232 249 220 269 295 341 298 287 291 303 301 289 295 269 255 255 248 245
19 28 35 40 40 62 127 145 153 130 75 82 134 240 219 208 181 171 169 150 164 94 92 241 245 212 199 260 278 254 197 269 300 295 247 265 262 194 173 220 191 192 202 157 253 268 136 271 284 196 171 293 36 76 291 272 160 142 207 230 143 157 218 81 158 252 263 261 281 265 247 237 203 230 269 278 268 269 272 285 308 298 280 261 261 262 256 255
4 24 17 30 40 93 140 151 148 69 70 104 229 251 222 239 248 200 182 157 117 112 152 226 239 286 209 194 226 240 208 209 217 255 230 226 258 222 179 190 179 157 167 131 171 239 122 204 277 294 191 286 31 142 226 235 82 72 284 300 18 164 189 175 169 175 185 244 279 295 285 238 215 222 231 244 253 258 261 262 266 268 263 260 261 262 264 254
14 63 339 356 42 126 158 147 69 64 77 184 203 219 251 259 262 248 230 205 167 165 211 217 191 242 248 214 222 255 230 204 186 192 231 225 260 255 217 170 151 152 29 47 124 224 129 183 249 294 325 225 201 201 199 189 160 149 205 244 231 175 144 216 234 150 146 200 240 272 281 263 234 213 215 231 244 249 253 253 254 264 271 275 274 280 290 285
61 63 302 333 43 151 152 82 49 90 115 213 210 222 245 205 207 278 282 255 230 241 197 188 188 203 228 232 249 237 210 220 200 194 238 235 237 257 227 156 151 154 111 46 287 221 180 180 225 277 281 224 227 220 200 191 177 171 188 200 195 172 129 197 265 231 153 197 197 206 272 275 260 212 214 229 252 283 292 237 262 286 302 308 311 302 292 288
69 70 289 323 354 257 97 62 350 118 134 223 237 234 207 133 155 235 291 22 273 265 35 232 209 202 216 225 227 209 207 237 205 192 239 234 215 233 224 147 144 146 133 152 229 222 161 147 235 262 248 241 252 254 195 187 172 170 204 197 171 161 154 182 236 236 176 229 191 142 267 268 275 318 278 263 321 5 50 61 309 319 318 319 322 309 293 282
93 158 287 9 279 327 74 60 308 342 237 248 280 269 199 147 144 202 228 222 223 195 38 278 213 204 234 226 201 207 216 224 202 198 234 252 234 238 210 147 142 137 128 168 228 219 154 149 241 272 279 280 297 5 47 68 107 209 242 184 161 195 197 192 212 180 147 234 179 131 258 259 316 353 11 41 28 27 39 24 357 345 333 331 327 317 313 310
153 201 47 80 280 18 86 166 228 287 278 301 341 298 258 202 184 180 208 231 213 148 167 247 223 218 251 196 168 224 218 230 235 224 226 232 240 255 177 165 167 164 186 206 190 191 209 197 178 293 305 306 320 349 352 346 189 223 241 192 195 222 210 174 258 115 241 249 205 190 257 259 277 2 29 31 18 15 12 0 358 354 343 337 332 332 337 339
118 312 318 339 21 70 130 179 153 169 270 320 312 284 294 287 215 173 180 225 209 165 191 273 243 222 257 133 235 261 234 218 241 261 267 236 257 298 178 194 197 192 211 208 148 174 212 196 158 213 266 273 279 287 294 287 218 228 247 210 211 214 197 188 254 191 235 249 214 212 254 259 267 339 15 13 6 8 359 348 351 350 343 340 339 342 346 350
128 6 313 325 10 60 111 153 114 135 222 225 286 288 261 271 283 198 173 211 208 178 208 267 222 211 269 173 276 275 248 224 234 277 294 258 263 293 208 194 218 232 238 133 150 145 133 252 212 214 236 248 257 262 264 79 292 275 279 242 218 217 209 195 178 225 229 238 237 244 254 267 288 340 16 13 4 1 352 349 351 345 341 345 345 348 358 5
125 161 157 297 345 18 2 355 79 124 205 190 229 289 252 266 305 340 176 211 223 209 231 232 176 200 212 190 237 264 259 244 231 252 271 262 256 288 283 187 216 238 211 159 207 135 116 268 237 213 234 248 256 264 282 2 301 282 287 278 251 224 202 198 224 237 225 119 260 258 263 275 312 7 17 11 5 356 353 354 348 346 354 359 4 12 17 18
118 181 157 130 282 228 305 317 170 135 84 190 213 283 294 294 304 290 236 265 328 216 225 290 243 225 219 186 178 271 290 281 232 234 272 279 273 318 317 226 208 230 174 182 252 141 170 259 239 200 238 255 263 273 288 304 286 277 281 281 271 242 208 210 232 242 236 236 255 268 285 299 356 21 359 359 4 349 345 345 343 2 16 17 20 19 17 13
73 106 334 32 52 197 184 355 122 115 53 308 234 272 233 249 272 266 238 357 335 267 194 257 264 237 225 202 184 251 272 272 277 267 249 264 253 308 314 275 264 14 125 191 259 137 167 264 255 203 256 270 272 279 288 285 282 283 281 277 271 255 238 229 241 253 255 259 266 284 298 304 14 23 345 350 357 339 340 347 1 21 20 16 18 14 10 7
87 161 241 32 32 60 29 25 85 97 18 294 246 263 218 200 250 278 258 179 259 295 156 218 258 249 221 207 196 235 237 232 270 271 257 291 281 206 266 265 234 41 23 196 298 295 214 260 354 78 280 278 281 297 317 283 274 280 286 286 274 264 261 255 261 273 277 279 285 295 297 303 14 10 344 344 348 348 352 354 8 24 15 11 12 5 3 3
133 169 145 104 28 327 8 19 86 96 37 326 228 256 275 241 234 265 277 213 214 235 188 211 264 283 209 204 211 243 254 248 261 267 265 280 275 237 241 258 170 100 268 191 287 284 222 255 354 61 271 278 289 342 355 322 297 283 313 335 314 291 291 305 13 7 343 317 321 348 355 336 345 348 341 341 351 356 351 350 11 20 8 8 4 358 360 0
129 92 89 110 130 309 83 59 45 64 309 238 220 228 263 273 257 182 309 294 268 244 208 206 261 308 279 261 250 254 271 271 262 266 266 262 261 255 253 258 257 246 211 183 214 230 181 219 277 122 257 276 290 20 358 330 317 303 350 354 332 336 19 37 45 33 17 6 10 22 6 331 328 337 341 345 356 354 340 343 18 19 3 2 359 358 360 354